Location: ??????
(30.5519°N, 47.7720°E)
Time: 08:30:13
(UTC+00:00)

H-2A R/B - Visible Passes

Search period start: 09 May 2021 00:00
Search period end: 19 May 2021 00:00
Orbit: 578 x 654 km, 98.5° (Epoch: 08 May)

Date Brightness Start Highest point End Pass type
(mag) Time Alt. Az. Time Alt. Az. Time Alt. Az.
10 May 5.6 00:55:42 10° E 00:57:46 13° ENE 00:59:52 10° NE visible
10 May 5.9 15:59:14 10° NW 16:01:01 12° WNW 16:02:45 10° W visible
11 May 5.2 01:10:25 10° ESE 01:13:37 20° ENE 01:16:50 10° NNE visible
12 May 4.5 01:25:40 10° SE 01:29:30 30° ENE 01:33:23 10° N visible
16 May 5.6 00:55:57 10° E 00:57:54 13° ENE 00:59:52 10° NE visible
16 May 5.8 15:59:15 10° NW 16:01:07 13° WNW 16:02:57 10° W visible
17 May 5.3 01:10:36 10° ESE 01:13:45 19° ENE 01:16:55 10° NNE visible
18 May 4.6 01:25:48 10° SE 01:29:38 29° ENE 01:33:29 10° NNE visible
